W5HKR Weather Reports


time (UTC)temp
F
wind
direction
speed
knots
gust
knots
rain 1hr
in
rain 24hr
in
rain mn
in
humidity
%
barometer
mb
20260510153330 65 273 11.3 13.0 0.00 0.02 0.00 91 990.6
20260510152802 81 266 12.2 13.0 0.00 0.19 0.00 74 985.4
20260510152330 65 263 11.3 13.0 0.00 0.06 0.00 91 990.6
20260510151830 65 263 10.4 12.2 0.00 0.07 0.00 91 990.6
20260510151331 65 271 11.3 13.0 0.00 0.07 0.00 91 990.6
20260510151001 65 264 10.4 11.3 0.00 0.07 0.00 91 990.6
20260510150830 78 274 10.4 13.0 0.00 0.22 0.00 80 984.9
20260510150330 65 267 12.2 13.9 0.00 0.09 0.00 91 990.6
20260510145829 78 263 12.2 12.2 0.00 0.22 0.00 81 985.4
20260510145331 65 272 11.3 13.0 0.00 0.09 0.00 91 990.6
20260510145200 77 273 10.4 13.0 0.00 0.22 0.00 82 985.2
20260510144830 65 272 10.4 11.3 0.00 0.09 0.00 91 990.6
20260510144329 76 268 10.4 13.0 0.00 0.23 0.00 83 985.4
20260510143830 77 264 10.4 13.0 0.00 0.25 0.00 83 985.3
20260510143402 76 268 10.4 13.0 0.00 0.25 0.00 84 984.9
20260510143331 76 262 10.4 13.0 0.00 0.25 0.00 85 985.1
20260510142831 75 266 10.4 12.2 0.00 0.26 0.00 86 984.8
20260510142330 65 274 12.2 12.2 0.00 0.12 0.00 91 990.6
20260510141830 65 269 10.4 12.2 0.00 0.13 0.00 91 990.6
20260510141601 65 268 10.4 12.2 0.00 0.13 0.00 91 990.6
20260510141330 65 264 8.7 12.2 0.00 0.13 0.00 91 990.6
20260510140830 74 263 11.3 12.2 0.00 0.26 0.00 89 984.8
20260510140331 74 273 10.4 11.3 0.00 0.26 0.00 89 984.7
20260510135833 65 273 10.4 11.3 0.00 0.13 0.00 91 990.6
20260510135800 65 273 10.4 11.3 0.00 0.13 0.00 91 990.6
20260510135330 73 269 10.4 13.0 0.00 0.26 0.00 90 984.7
20260510134830 65 275 8.7 12.2 0.00 0.13 0.00 91 990.6
20260510134330 65 262 10.4 12.2 0.00 0.13 0.00 91 990.6
20260510134000 72 261 10.4 11.3 0.00 0.26 0.00 91 984.2
20260510133829 65 267 8.7 12.2 0.00 0.13 0.00 91 990.6
20260510133330 65 267 10.4 13.0 0.00 0.13 0.00 91 990.6
20260510132831 65 269 7.8 13.0 0.00 0.13 0.00 91 990.6
20260510132331 71 269 10.4 12.2 0.00 0.26 0.00 92 984.1
20260510132200 71 272 8.7 13.9 0.00 0.26 0.00 92 984.1
20260510131831 71 273 8.7 12.2 0.00 0.26 0.00 92 984.1
20260510131330 65 276 10.4 12.2 0.00 0.13 0.00 91 990.6
20260510130830 70 270 10.4 12.2 0.00 0.26 0.00 94 984.0
20260510130401 69 269 8.7 12.2 0.00 0.26 0.00 94 983.8
20260510130331 65 264 7.8 11.3 0.00 0.13 0.00 91 990.6
20260510125831 65 270 8.7 11.3 0.00 0.13 0.00 91 990.6
20260510125331 68 271 8.7 11.3 0.00 0.26 0.00 96 983.7
20260510124830 65 272 7.8 10.4 0.00 0.13 0.00 91 990.6
20260510124601 65 268 7.8 10.4 0.00 0.13 0.00 91 990.6
20260510124331 67 261 7.8 10.4 0.00 0.26 0.00 96 983.4
20260510123831 65 265 7.8 11.3 0.00 0.13 0.00 91 990.6
20260510123331 66 269 6.1 11.3 0.00 0.26 0.00 96 983.7
20260510122830 66 268 7.8 11.3 0.00 0.26 0.00 95 983.5
20260510122802 65 268 7.8 11.3 0.00 0.13 0.00 91 990.6
20260510121330 65 269 7.8 11.3 0.00 0.26 0.00 95 983.7
20260510121000 66 273 8.7 11.3 0.00 0.26 0.00 95 983.4
20260510120831 66 270 8.7 10.4 0.00 0.26 0.00 95 983.4
20260510120330 66 272 8.7 12.2 0.00 0.26 0.00 95 983.1
20260510115831 65 282 8.7 11.3 0.00 0.13 0.00 91 990.6
20260510115201 65 276 8.7 10.4 0.00 0.13 0.00 91 990.6
20260510114831 65 265 8.7 10.4 0.00 0.13 0.00 91 990.6
20260510114330 66 267 7.8 10.4 0.00 0.26 0.00 95 983.1
20260510113830 65 271 7.0 11.3 0.00 0.13 0.00 91 990.6
20260510113401 65 267 10.4 12.2 0.00 0.13 0.00 91 990.6
20260510112830 65 268 7.0 8.7 0.00 0.13 0.00 91 990.6
20260510112331 66 269 7.0 11.3 0.00 0.26 0.00 94 983.5
20260510111830 65 269 7.8 11.3 0.00 0.13 0.00 91 990.6
20260510111602 65 269 6.1 11.3 0.00 0.13 0.00 91 990.6
20260510110830 65 268 7.8 12.2 0.00 0.13 0.00 91 990.6
20260510105832 67 268 7.8 11.3 0.00 0.26 0.00 93 983.1
20260510105801 67 268 7.8 11.3 0.00 0.26 0.00 93 983.1
20260510105331 65 273 7.0 11.3 0.00 0.13 0.00 91 990.6
20260510104830 65 273 7.8 13.0 0.00 0.13 0.00 91 990.6
20260510104001 67 279 8.7 12.2 0.00 0.26 0.00 91 983.7
20260510103829 67 277 8.7 10.4 0.00 0.26 0.00 91 983.2
20260510103331 66 274 7.8 11.3 0.00 0.26 0.00 91 983.3
20260510102831 65 264 7.8 8.7 0.00 0.13 0.00 91 990.6
20260510102331 67 268 7.8 8.7 0.00 0.26 0.00 90 983.7
20260510102201 67 266 7.8 10.4 0.00 0.26 0.00 90 983.2
20260510101832 65 271 8.7 12.2 0.00 0.13 0.00 91 990.6
20260510101331 67 271 7.8 10.4 0.00 0.26 0.00 89 983.6
20260510100401 65 268 7.8 10.4 0.00 0.13 0.00 91 990.6
20260510100333 67 269 7.0 10.4 0.00 0.26 0.00 89 983.3
20260510095834 67 269 7.0 11.3 0.00 0.26 0.00 88 983.7
20260510094602 68 268 7.8 7.8 0.00 0.26 0.00 87 983.6
20260510093831 68 269 7.8 7.8 0.00 0.26 0.00 87 983.4
20260510092833 65 269 7.8 7.8 0.00 0.13 0.00 91 990.6
20260510092802 65 269 7.8 7.8 0.00 0.13 0.00 91 990.6
20260510091831 65 269 7.8 7.8 0.00 0.13 0.00 91 990.6
20260510091330 65 269 7.8 7.8 0.00 0.13 0.00 91 990.6
20260510091002 68 269 7.8 7.8 0.00 0.26 0.00 86 983.0
20260510090830 68 269 7.8 7.8 0.00 0.26 0.00 86 983.1
20260510085832 69 269 7.8 8.7 0.00 0.26 0.00 85 983.2
20260510085330 65 269 7.8 8.7 0.00 0.13 0.00 91 990.6
20260510085201 69 269 7.8 8.7 0.00 0.26 0.00 85 983.4
20260510084333 65 269 7.8 8.7 0.00 0.13 0.00 91 990.6
20260510083830 69 269 7.8 7.8 0.00 0.26 0.00 85 983.4
20260510083402 69 269 7.8 8.7 0.00 0.26 0.00 84 983.1
20260510083330 65 269 7.8 8.7 0.00 0.13 0.00 91 990.6
20260510082332 69 269 7.8 7.8 0.00 0.26 0.00 83 983.3
20260510081830 69 269 7.8 8.7 0.00 0.26 0.00 83 983.1
20260510081602 70 269 7.8 8.7 0.00 0.26 0.00 83 983.1
20260510081330 70 269 7.8 8.7 0.00 0.26 0.00 83 983.2
20260510080830 65 269 7.8 8.7 0.00 0.13 0.00 91 990.6
20260510080330 70 269 7.8 8.7 0.00 0.26 0.00 82 983.4
20260510075833 65 269 7.8 8.7 0.00 0.13 0.00 91 990.6
20260510075802 65 269 7.8 8.7 0.00 0.13 0.00 91 990.6
20260510075332 71 269 7.8 8.7 0.00 0.26 0.00 82 982.7
20260510074832 65 271 7.8 8.7 0.00 0.13 0.00 91 990.6
20260510074332 71 269 7.8 8.7 0.00 0.26 0.00 81 983.2
20260510074002 71 269 7.8 8.7 0.00 0.26 0.00 81 983.1
20260510073831 65 269 8.7 10.4 0.00 0.13 0.00 91 990.6
20260510073331 65 269 7.8 8.7 0.00 0.13 0.00 91 990.6
20260510072830 72 269 8.7 8.7 0.00 0.26 0.00 80 982.8
20260510072331 65 271 8.7 8.7 0.00 0.13 0.00 91 990.6
20260510072202 65 270 8.7 8.7 0.00 0.13 0.00 91 990.6
20260510071831 65 268 8.7 8.7 0.00 0.13 0.00 91 990.6
20260510071331 72 269 7.8 8.7 0.00 0.26 0.00 81 982.7
20260510070831 72 269 8.7 8.7 0.00 0.26 0.00 81 982.7
20260510070401 65 269 8.7 10.4 0.00 0.13 0.00 91 990.6
20260510070330 65 269 8.7 10.4 0.00 0.13 0.00 91 990.6
20260510065830 65 269 8.7 8.7 0.00 0.13 0.00 91 990.6
20260510065331 65 268 8.7 11.3 0.00 0.13 0.00 91 990.6
20260510064603 72 270 8.7 10.4 0.00 0.26 0.00 84 982.7
20260510064331 72 269 8.7 10.4 0.00 0.26 0.00 85 983.1
20260510063831 72 271 8.7 8.7 0.00 0.26 0.00 85 982.8
20260510063332 72 269 8.7 8.7 0.00 0.26 0.00 85 982.9
20260510062832 72 269 8.7 8.7 0.00 0.26 0.00 85 982.8
20260510062801 72 269 8.7 8.7 0.00 0.26 0.00 85 982.8
20260510061830 73 269 8.7 8.7 0.00 0.26 0.00 85 983.1
20260510061004 65 269 8.7 8.7 0.00 0.13 0.00 91 990.6
20260510060831 65 268 8.7 8.7 0.00 0.13 0.00 91 990.6
20260510060332 65 269 8.7 8.7 0.00 0.13 0.00 91 990.6
20260510055817 65 269 8.7 8.7 0.00 0.13 0.00 91 990.6
20260510055317 65 269 8.7 8.7 0.00 0.13 0.00 91 990.6
20260510055148 65 269 8.7 8.7 0.00 0.13 0.00 91 990.6
20260510054817 73 269 8.7 8.7 0.00 0.26 0.00 84 982.7
20260510054319 73 269 8.7 8.7 0.00 0.26 0.00 83 982.9
20260510053816 65 269 8.7 10.4 0.00 0.13 0.00 91 990.6
20260510053347 73 268 8.7 8.7 0.00 0.26 0.00 83 983.7
20260510053316 65 269 8.7 8.7 0.00 0.13 0.00 91 990.6
20260510052816 74 269 8.7 8.7 0.00 0.26 0.00 83 982.7
20260510052317 74 269 8.7 8.7 0.00 0.26 0.00 83 983.1
20260510051819 74 269 8.7 8.7 0.00 0.26 0.00 83 983.1
20260510051547 74 268 8.7 8.7 0.00 0.26 0.00 82 983.1
20260510051317 65 269 8.7 8.7 0.00 0.13 0.00 91 990.6
20260510050817 74 269 8.7 8.7 0.00 0.26 0.00 82 982.5
20260510050316 65 269 8.7 8.7 0.00 0.13 0.00 91 990.6
20260510045819 65 269 8.7 8.7 0.00 0.13 0.13 91 990.6
20260510045748 65 269 8.7 8.7 0.00 0.13 0.13 91 990.6
20260510045317 65 269 8.7 8.7 0.00 0.13 0.13 91 990.6
20260510044817 65 269 8.7 8.7 0.00 0.13 0.13 91 990.6
20260510044318 65 269 8.7 8.7 0.00 0.13 0.13 91 990.6
20260510043947 65 269 8.7 8.7 0.00 0.13 0.13 91 990.6
20260510043817 65 269 8.7 8.7 0.00 0.13 0.13 91 990.6
20260510043316 75 269 8.7 8.7 0.00 0.13 0.13 80 982.4
20260510042816 75 269 8.7 8.7 0.00 0.13 0.13 80 982.7
20260510042317 75 270 8.7 8.7 0.00 0.13 0.13 79 982.4
20260510042148 75 269 8.7 8.7 0.00 0.13 0.13 79 982.2
20260510041818 65 269 8.7 10.4 0.00 0.13 0.13 91 990.6
20260510041316 75 269 8.7 10.4 0.00 0.13 0.13 80 982.1
20260510040817 75 269 8.7 10.4 0.00 0.13 0.13 79 982.7
20260510040347 74 268 8.7 10.4 0.00 0.13 0.13 80 982.6
20260510040318 65 267 8.7 10.4 0.00 0.13 0.13 91 990.6
20260510035816 74 268 8.7 10.4 0.00 0.13 0.13 82 982.4
20260510035317 65 269 8.7 8.7 0.00 0.13 0.13 91 990.6
20260510034816 65 269 8.7 10.4 0.00 0.13 0.13 91 990.6
20260510034548 65 270 8.7 8.7 0.00 0.13 0.13 91 990.6
20260510034317 65 269 8.7 10.4 0.00 0.13 0.13 91 990.6
20260510033817 75 269 8.7 10.4 0.00 0.13 0.13 80 982.1
20260510033316 65 271 8.7 10.4 0.00 0.13 0.13 91 990.6
20260510032749 65 269 8.7 8.7 0.00 0.13 0.13 91 990.6
20260510032317 75 269 8.7 8.7 0.00 0.13 0.13 80 981.8
20260510031816 75 270 8.7 10.4 0.00 0.13 0.13 80 982.1
20260510031318 65 269 8.7 8.7 0.00 0.13 0.13 91 990.6
20260510030948 65 269 8.7 10.4 0.00 0.13 0.13 91 990.6
20260510030818 76 269 8.7 8.7 0.00 0.13 0.13 79 982.0
20260510030317 76 269 8.7 10.4 0.00 0.13 0.13 77 982.0
20260510025817 65 269 8.7 10.4 0.00 0.13 0.13 91 990.6
20260510025317 76 269 8.7 10.4 0.00 0.13 0.13 76 981.7
20260510025147 76 269 8.7 10.4 0.00 0.13 0.13 76 981.7
20260510024818 65 269 8.7 10.4 0.00 0.13 0.13 91 990.6
20260510024318 77 271 10.4 10.4 0.00 0.13 0.13 75 981.5
20260510023348 65 269 10.4 10.4 0.00 0.13 0.13 91 990.6
20260510023318 78 269 10.4 10.4 0.00 0.13 0.13 72 981.7
20260510022817 79 270 10.4 10.4 0.00 0.13 0.13 71 981.5
20260510022318 79 269 10.4 10.4 0.00 0.13 0.13 70 981.9
20260510021816 65 270 8.7 10.4 0.00 0.13 0.13 91 990.6
20260510021548 80 271 8.7 10.4 0.00 0.13 0.13 69 981.4
20260510021318 65 269 8.7 10.4 0.00 0.13 0.13 91 990.6
20260510020816 65 271 10.4 10.4 0.00 0.13 0.13 91 990.6
20260510020317 80 269 8.7 10.4 0.00 0.13 0.13 67 981.1
20260510015819 80 269 10.4 10.4 0.00 0.13 0.13 67 981.4
20260510015748 80 269 10.4 10.4 0.00 0.13 0.13 67 981.4
20260510015317 81 269 10.4 10.4 0.00 0.13 0.13 66 981.4
20260510014816 81 269 10.4 11.3 0.00 0.13 0.13 65 981.1
20260510014317 81 268 10.4 11.3 0.00 0.13 0.13 65 980.9
20260510013947 81 267 10.4 11.3 0.00 0.13 0.13 65 981.0
20260510013818 65 269 10.4 11.3 0.00 0.13 0.13 91 990.6
20260510013318 82 268 10.4 11.3 0.00 0.13 0.13 63 981.0
20260510012817 82 269 10.4 11.3 0.00 0.13 0.13 62 980.8
20260510012318 82 268 10.4 11.3 0.00 0.13 0.13 62 980.5
20260510012148 65 269 10.4 11.3 0.00 0.13 0.13 91 990.6
20260510011819 65 273 11.3 11.3 0.00 0.13 0.13 91 990.6
20260510011317 65 268 10.4 12.2 0.00 0.13 0.13 91 990.6
20260510010817 65 267 10.4 11.3 0.00 0.13 0.13 91 990.6
20260510010349 65 271 11.3 13.0 0.00 0.13 0.13 91 990.6
20260510010317 83 263 10.4 13.0 0.00 0.13 0.13 59 980.4
20260510005818 65 269 10.4 12.2 0.00 0.13 0.13 91 990.6
20260510005318 65 268 10.4 11.3 0.00 0.13 0.13 91 990.6
20260510004817 83 272 11.3 11.3 0.00 0.13 0.13 58 980.7
20260510004548 83 269 11.3 11.3 0.00 0.13 0.13 58 980.1
20260510004317 83 269 11.3 11.3 0.00 0.13 0.13 59 980.3
20260510003818 84 269 10.4 11.3 0.00 0.13 0.13 60 980.3
20260510003317 84 269 8.7 11.3 0.00 0.13 0.13 58 980.3
20260510002748 84 269 11.3 12.2 0.00 0.13 0.13 61 979.7
20260510002317 84 270 11.3 13.0 0.00 0.13 0.13 62 980.4
20260510001818 65 269 11.3 11.3 0.01 0.13 0.13 91 990.6
20260510001317 65 267 10.4 11.3 0.02 0.13 0.13 91 990.6
20260510000947 84 268 8.7 11.3 0.02 0.13 0.13 68 980.1
20260510000817 84 269 10.4 11.3 0.02 0.13 0.13 65 980.0
20260510000318 65 268 10.4 11.3 0.02 0.13 0.13 91 990.6
20260509235817 65 272 10.4 11.3 0.02 0.13 0.13 91 990.6
20260509235317 84 267 10.4 11.3 0.02 0.13 0.13 73 979.9
20260509235147 65 268 10.4 11.3 0.02 0.13 0.13 91 990.6
20260509234818 65 270 10.4 11.3 0.02 0.13 0.13 91 990.6
20260509234317 65 269 10.4 11.3 0.02 0.13 0.13 91 990.6
20260509233817 84 269 10.4 11.3 0.02 0.13 0.13 74 979.8
20260509233347 65 269 10.4 11.3 0.02 0.13 0.13 91 990.6
20260509233318 65 269 10.4 11.3 0.02 0.13 0.13 91 990.6
20260509232816 65 269 10.4 11.3 0.02 0.13 0.13 91 990.6
20260509232318 85 267 11.3 11.3 0.02 0.13 0.13 70 979.4
20260509231549 87 269 12.2 13.0 0.01 0.12 0.12 63 979.2
20260509231318 88 269 13.0 14.8 0.00 0.11 0.11 58 979.1
20260509230818 65 271 12.2 13.9 0.00 0.11 0.11 91 990.6
20260509230317 65 270 12.2 13.0 0.00 0.11 0.11 91 990.6
20260509225748 89 269 10.4 13.9 0.00 0.11 0.11 51 979.8
20260509225317 65 269 12.2 13.0 0.00 0.11 0.11 91 990.6
20260509224818 92 274 11.3 13.0 0.00 0.11 0.11 48 980.0
20260509224318 65 267 12.2 13.0 0.00 0.11 0.11 91 990.6
20260509223948 92 268 13.0 13.0 0.00 0.11 0.11 51 979.7
20260509223819 65 269 13.0 13.0 0.00 0.11 0.11 91 990.6
20260509223318 92 269 13.0 13.9 0.00 0.11 0.11 48 980.0
20260509222819 93 271 13.9 14.8 0.00 0.11 0.11 49 979.7
20260509222319 93 269 12.2 14.8 0.00 0.11 0.11 48 979.7
20260509222148 65 264 11.3 14.8 0.00 0.11 0.11 91 990.6
20260509221818 65 267 13.0 13.9 0.00 0.11 0.11 91 990.6
20260509221318 65 269 13.9 14.8 0.00 0.11 0.11 91 990.6
20260509220817 93 266 14.8 14.8 0.00 0.11 0.11 50 980.0
20260509220347 65 267 12.2 13.0 0.00 0.11 0.11 91 990.6
20260509220317 65 268 11.3 13.0 0.00 0.11 0.11 91 990.6
20260509215818 65 268 13.9 15.6 0.00 0.11 0.11 91 990.6
20260509215317 93 268 13.9 14.8 0.00 0.11 0.11 49 980.0
20260509214819 65 271 13.0 14.8 0.00 0.11 0.11 91 990.6
20260509214549 93 268 13.9 14.8 0.00 0.11 0.11 45 980.0
20260509214318 94 268 13.9 14.8 0.00 0.11 0.11 47 979.9
20260509213817 65 272 13.0 14.8 0.00 0.11 0.11 91 990.6
20260509213318 95 269 13.0 13.9 0.00 0.11 0.11 46 980.0
20260509212819 94 268 13.0 14.8 0.00 0.11 0.11 49 980.2
20260509212748 65 269 13.9 14.8 0.00 0.11 0.11 91 990.6
20260509212318 65 269 13.0 13.9 0.00 0.11 0.11 91 990.6
20260509211818 92 266 13.0 13.9 0.00 0.11 0.11 48 980.0
20260509211318 92 266 13.9 17.4 0.00 0.11 0.11 49 980.1
20260509210948 65 270 14.8 15.6 0.00 0.11 0.11 91 990.6
20260509210817 65 267 13.9 15.6 0.00 0.11 0.11 91 990.6
20260509210318 65 269 12.2 13.9 0.00 0.11 0.11 91 990.6
20260509205818 65 269 13.0 13.9 0.00 0.11 0.11 91 990.6
20260509205317 92 269 13.0 13.9 0.00 0.11 0.11 47 980.4
20260509205148 92 268 13.0 14.8 0.00 0.11 0.11 47 980.5
20260509204817 65 264 13.0 15.6 0.00 0.11 0.11 91 990.6
20260509204317 93 268 13.9 17.4 0.00 0.11 0.11 47 980.4
20260509203817 65 267 13.9 18.2 0.00 0.11 0.11 91 990.6
20260509203347 93 269 14.8 14.8 0.00 0.11 0.11 49 980.6
20260509203318 65 268 13.9 14.8 0.00 0.11 0.11 91 990.6
20260509202817 65 269 13.0 14.8 0.00 0.11 0.11 91 990.6
20260509202317 91 268 13.0 15.6 0.00 0.11 0.11 48 980.7
20260509201817 65 267 12.2 15.6 0.00 0.11 0.11 91 990.6
20260509201548 91 269 13.9 15.6 0.00 0.11 0.11 52 980.7
20260509201317 65 269 13.0 15.6 0.00 0.11 0.11 91 990.6
20260509200818 91 265 13.9 14.8 0.00 0.11 0.11 51 980.9
20260509200317 91 267 13.0 14.8 0.00 0.11 0.11 53 980.8
20260509195820 89 269 13.0 13.9 0.00 0.11 0.11 60 981.4
20260509195748 89 269 13.0 13.9 0.00 0.11 0.11 60 981.4
20260509195317 65 268 12.2 15.6 0.00 0.11 0.11 91 990.6
20260509194818 65 267 13.0 17.4 0.00 0.11 0.11 91 990.6
20260509194317 91 269 13.9 15.6 0.00 0.11 0.11 54 981.7
20260509193950 91 269 13.0 14.8 0.00 0.11 0.11 54 981.5
20260509193818 90 269 13.0 14.8 0.00 0.11 0.11 55 982.0
20260509192319 65 268 13.9 15.6 0.00 0.11 0.11 91 990.6
20260509192149 89 269 13.0 13.9 0.00 0.11 0.11 56 981.7
20260509191818 89 271 13.9 14.8 0.00 0.11 0.11 56 981.9
20260509190818 65 269 13.0 13.9 0.00 0.11 0.11 91 990.6
20260509190349 89 268 13.9 15.6 0.00 0.11 0.11 59 982.1
20260509190318 89 269 13.9 13.9 0.00 0.11 0.11 57 982.1
20260509185817 65 270 13.9 15.6 0.00 0.11 0.11 91 990.6
20260509185320 90 269 13.0 14.8 0.00 0.11 0.11 56 981.8
20260509184819 65 266 13.0 14.8 0.00 0.11 0.11 91 990.6
20260509184549 65 269 12.2 13.9 0.00 0.11 0.11 91 990.6
20260509184318 88 267 13.0 13.9 0.00 0.11 0.11 58 982.2
20260509183818 87 269 13.9 13.9 0.00 0.11 0.11 64 982.4
20260509183318 87 269 12.2 12.2 0.00 0.11 0.11 63 982.4
20260509182749 65 269 13.0 13.9 0.00 0.11 0.11 91 990.6
20260509182317 65 269 13.9 15.6 0.00 0.11 0.11 91 990.6
20260509181818 65 271 13.0 13.9 0.00 0.11 0.11 91 990.6
20260509181318 87 268 12.2 13.9 0.00 0.11 0.11 65 982.4
20260509180949 65 269 12.2 14.8 0.00 0.11 0.11 91 990.6
20260509180818 65 269 13.0 14.8 0.00 0.11 0.11 91 990.6
20260509180317 65 272 13.0 13.9 0.00 0.11 0.11 91 990.6
20260509175819 87 269 13.0 14.8 0.00 0.11 0.11 64 982.7
20260509175317 88 266 13.0 14.8 0.00 0.11 0.11 66 982.7
20260509175148 65 268 13.0 13.9 0.00 0.11 0.11 91 990.6
20260509174819 65 269 13.0 14.8 0.00 0.11 0.11 91 990.6
20260509174317 86 268 12.2 14.8 0.00 0.11 0.11 67 982.9
20260509173817 65 268 13.0 13.9 0.00 0.11 0.11 91 990.6
20260509173348 86 268 13.0 13.9 0.00 0.11 0.11 69 982.7
20260509173319 86 267 12.2 14.8 0.00 0.11 0.11 69 983.3
20260509172817 86 270 12.2 13.9 0.00 0.11 0.11 70 982.7
20260509172319 65 271 12.2 13.0 0.00 0.11 0.11 91 990.6
20260509171817 84 266 13.0 13.9 0.00 0.11 0.11 70 982.7
20260509171549 85 269 12.2 13.9 0.00 0.11 0.11 70 983.3
20260509171319 85 268 13.0 13.9 0.00 0.11 0.11 70 983.1
20260509170818 84 267 12.2 13.9 0.00 0.11 0.11 71 983.1
20260509170317 84 267 12.2 13.0 0.00 0.11 0.11 75 983.1
20260509165818 65 272 11.3 17.4 0.00 0.11 0.11 91 990.6
20260509165748 82 264 12.2 17.4 0.00 0.11 0.11 77 982.8
20260509165318 65 267 13.0 17.4 0.00 0.11 0.11 91 990.6
20260509164819 82 269 11.3 14.8 0.00 0.11 0.11 78 983.0
20260509164318 82 269 13.0 14.8 0.00 0.11 0.11 75 982.9
20260509163948 81 268 12.2 15.6 0.00 0.11 0.11 78 983.0
20260509163817 81 270 13.0 15.6 0.00 0.11 0.11 76 983.4
20260509163317 65 270 12.2 13.0 0.00 0.11 0.11 91 990.6
20260509162819 81 269 12.2 13.0 0.00 0.11 0.11 80 983.1
20260509162317 65 273 11.3 13.0 0.00 0.11 0.11 91 990.6
20260509162149 65 270 12.2 13.0 0.01 0.11 0.11 91 990.6
20260509161819 80 269 12.2 13.0 0.04 0.11 0.11 82 982.7
20260509161318 80 268 11.3 13.0 0.05 0.11 0.11 85 982.8
20260509160349 65 269 11.3 13.0 0.05 0.11 0.11 91 990.6
20260509160317 65 268 10.4 13.0 0.05 0.11 0.11 91 990.6
20260509155818 65 264 11.3 12.2 0.07 0.11 0.11 91 990.6
20260509155317 77 273 11.3 12.2 0.07 0.11 0.11 89 982.8
20260509154817 65 269 11.3 12.2 0.07 0.11 0.11 91 990.6
20260509154548 76 269 11.3 12.2 0.07 0.11 0.11 88 983.0
20260509154318 65 277 8.7 12.2 0.07 0.11 0.11 91 990.6